Printer-friendly version
Follow the MPC on Twitter Follow the MPC on Facebook The MPC blog
Minor Planet Center

MPEC 2009-F29 : 2009 FG1

The following Minor Planet Electronic Circular may be linked-to from your own Web pages, but must not otherwise be redistributed electronically.

A form allowing access to any MPEC is at the bottom of this page.


Read MPEC 2009-F28 Read MPEC 2009-F30


M.P.E.C. 2009-F29                                Issued 2009 Mar. 18, 19:24 UT

     The Minor Planet Electronic Circulars contain information on unusual
         minor planets and routine data on comets.  They are published
   on behalf of Commission 20 of the International Astronomical Union by the
          Minor Planet Center, Smithsonian Astrophysical Observatory,
                          Cambridge, MA 02138, U.S.A.

             Prepared using the Tamkin Foundation Computer Network

                              MPC@CFA.HARVARD.EDU
          URL http://www.cfa.harvard.edu/iau/mpc.html  ISSN 1523-6714

                                   2009 FG1

Observations:
     K09F01G* C2009 03 17.30415 13 23 14.69 +13 31 56.4          19.0   EF029704
     K09F01G  C2009 03 17.31609 13 23 09.60 +13 31 39.0          19.4   EF029704
     K09F01G  C2009 03 17.33987 13 22 59.41 +13 31 02.5          19.4   EF029704
     K09F01G  C2009 03 17.35176 13 22 54.47 +13 30 46.3          19.6   EF029704
     K09F01G  C2009 03 18.35882 13 15 46.58 +13 04 22.4          19.4 V EF029703
     K09F01G  C2009 03 18.37171 13 15 40.89 +13 04 01.7          19.1 V EF029703
     K09F01G  C2009 03 18.38449 13 15 35.35 +13 03 41.9          18.6 V EF029703
     K09F01G  C2009 03 18.39738 13 15 29.80 +13 03 19.8          19.1 V EF029703
     K09F01G  C2009 03 18.46194 13 15 01.69 +13 01 32.6          18.3 V EF029703
     K09F01G  C2009 03 18.46387 13 15 00.82 +13 01 32.1          19.0 V EF029703
     K09F01G  C2009 03 18.46580 13 14 59.96 +13 01 28.3          18.8 V EF029703
     K09F01G  C2009 03 18.46771 13 14 59.10 +13 01 24.7          18.8 V EF029703

Observer details:
703 Catalina Sky Survey.  Observer R. A. Kowalski.  Measurers E. C. Beshore,
    A. Boattini, G. J. Garradd, A. R. Gibbs, A. D. Grauer, R. E. Hill,
    R. A. Kowalski, S. M. Larson, R. H. McNaught.  0.68-m Schmidt + CCD.
704 Lincoln Laboratory ETS, New Mexico.  Observers M. Bezpalko, D. Torres,
    R. Kracke, G. Spitz, J. Kistler.  Measurers J. Stuart, S. Scruggs.  1.0-m
    f/2.15 reflector + CCD.

Orbital elements:
2009 FG1                                                 Earth MOID = 0.1498 AU
Epoch 2009 Mar. 10.0 TT = JDT 2454900.5                 MPC
M 147.83118              (2000.0)            P               Q
n   0.62942252     Peri.   12.96085     +0.96751795     -0.24097342
a   1.3484697      Node     4.50112     +0.02990589     -0.19109028
e   0.1497531      Incl.   76.86474     +0.25102721     +0.95153366
P   1.57           H   18.3           G   0.15
From 12 observations 2009 Mar. 17-18.

Ephemeris:
2009 FG1                 a,e,i = 1.35, 0.15, 77                  q = 1.1465
Date    TT    R. A. (2000) Decl.     Delta      r     Elong.  Phase     V
2009 03 10    14 09.02   +15 57.9    0.641    1.527   137.1    26.3    19.4
2009 03 20    13 03.84   +12 18.2    0.562    1.535   159.7    13.0    18.7
2009 03 30    11 48.08   +06 25.6    0.556    1.542   164.7     9.9    18.6
2009 04 09    10 43.65   +00 15.1    0.626    1.546   142.5    23.2    19.3
2009 04 19    10 00.32   -04 32.9    0.750    1.549   123.4    32.8    20.0
2009 04 29    09 34.48   -08 00.2    0.900    1.550   108.7    38.0    20.5
2009 05 09    09 20.26   -10 38.2    1.059    1.550    97.0    40.3    21.0
2009 05 19    09 13.41   -12 50.5    1.215    1.547    87.5    40.8    21.3
2009 05 29    09 11.39   -14 51.5    1.364    1.543    79.4    40.2    21.5
2009 06 08    09 12.63   -16 49.9    1.499    1.537    72.5    39.0    21.7
2009 06 18    09 16.16   -18 50.9    1.618    1.529    66.4    37.5    21.8
2009 06 28    09 21.44   -20 58.7    1.719    1.519    61.3    35.9    21.9

Sonia Keys                   (C) Copyright 2009 MPC           M.P.E.C. 2009-F29

Read MPEC 2009-F28 Read MPEC 2009-F30


MPEC number:

Enter an MPEC number in one of the following forms:

  • 1997-B01 (the full form)
  • J97B01 (the packed version of the full form)
  • B01 (the abbreviated form)

Valid HTML 4.01!